DIRECTV 11

Last updated on Tue Sep 22 2026 00:03:11 GMT+0000 (Coordinated Universal Time)

1 32729U 08013A 26264.51095517 -.00000130 00000+0 00000+0 0 9991 2 32729 0.0163 48.9951 0000341 33.2423 2.9325 1.00272369 46557
UTC large
Height (km)
Speed (km/s)
/
Latitude / Longitude
Inclination (degrees)
Orbital Period (minutes)
Azimuth
Elevation
Range (km)
Doppler Factor

Next 0 passes for location: London (51.5072 / 0.1276)

No passes found over London.
DIRECTV 11